575  
ASUS41 KRLX 271610  
RWRRLX  
WEST VIRGINIA REGIONAL WEATHER ROUNDUP  
NATIONAL WEATHER SERVICE CHARLESTON WV  
1200 PM EDT MON MAR 27 2017  
 
NOTE: "FAIR" INDICATES FEW OR NO CLOUDS BELOW 12,000 FEET WITH NO  
SIGNIFICANT WEATHER AND/OR S TO VISIBILITY
.  
 
WVZ003-271700-  
NORTHERN PANHANDLE OF WEST VIRGINIA  
 
CITY SKY/WX TMP DP RH WIND PRES REMARKS
 
WHEELING MOSUNNY 62 49 62 SW10 30.00F  

 
 
WVZ009-271700-  
NORTHWEST WEST VIRGINIA  
 
CITY SKY/WX TMP DP RH WIND PRES REMARKS
 
PARKERSBURG CLOUDY 62 53 72 SW7 30.05S  

 
 
WVZ006-271700-  
WESTERN WEST VIRGINIA  
 
CITY SKY/WX TMP DP RH WIND PRES REMARKS
 
HUNTINGTON SUNNY 68 57 68 VRB3 30.01S  

 
 
WVZ015-271700-  
WEST CENTRAL WEST VIRGINIA  
 
CITY SKY/WX TMP DP RH WIND PRES REMARKS
 
CHARLESTON MOSUNNY 70 55 59 VRB6 30.01F  

 
 
WVZ022-031-271700-  
NORTH CENTRAL WEST VIRGINIA  
 
CITY SKY/WX TMP DP RH WIND PRES REMARKS
 
CLARKSBURG CLOUDY 62 54 74 SW9 30.03S  
MORGANTOWN CLOUDY 64 53 67 SW7 30.02F  

 
 
WVZ025-035-042-045-271700-  
SOUTHERN WEST VIRGINIA  
 
CITY SKY/WX TMP DP RH WIND PRES REMARKS
 
BECKLEY MOSUNNY 67 50 54 SW9 30.08S  
LOGAN PTSUNNY 68 54 60 VRB5 30.04S  
BLUEFIELD NOT AVBL  
LEWISBURG CLOUDY 65 52 61 CALM 30.08F  

 
 
WVZ047-271700-  
NORTHERN MOUNTAINS OF WEST VIRGINIA  
 
CITY SKY/WX TMP DP RH WIND PRES REMARKS
 
ELKINS CLOUDY 64 50 60 W7 30.05S  

 
 
WVZ052-271700-  
EASTERN PANHANDLE OF WEST VIRGINIA  
 
CITY SKY/WX TMP DP RH WIND PRES REMARKS
 
MARTINSBURG LGT RAIN 50 48 93 CALM 30.04F FOG  
PETERSBURG CLOUDY 56 52 87 CALM 30.04F  

 
 
 
CLICK HERE TO GO TO PREVIOUS BULLETINS.

The Nexlab WV Page
The Nexlab OH Page
The Nexlab KY Page
The Nexlab VA Page Main Text Page